Location: Dammartin
(48.9032°N, 1.6195°E)
Time: 14:12:18
(UTC+00:00)

YUBILEINY - Pass Details

Date: 09 December 2023
Orbit: 1479 x 1508 km, 82.5° (Epoch: 02 March)

Event Time Altitude Azimuth Distance (km) Brightness Sun altitude
Rises 20:04:02 0° 348° (NNW) 4,629 ? -39.5°
Reaches altitude 10° 20:06:56 10° 347° (NNW) 3,642 ? -40.0°
Enters shadow 20:13:18 53° 332° (NNW) 1,780 ? -41.0°
